Boone, NC

7:30 PM EDT on September 22, 2019 (GMT -0400)
Boone

Weather History for KTNB - August, 2019

Change the Weather History Date:

Sunday, August 25, 2019

  Actual Average (KGEV) Record (KGEV)
Temperature  
Mean Temperature 59 °F -  
Max Temperature 64 °F 78 °F 86 °F (1975)
Min Temperature 54 °F 56 °F 44 °F (1986)
Degree Days  
Heating Degree Days 6    
Growing Degree Days 9 (Base 50)    
Moisture  
Dew Point 57 °F    
Average Humidity 93    
Maximum Humidity 100    
Minimum Humidity 76    
Precipitation  
Precipitation 0.00 in - - ()
Sea Level Pressure  
Sea Level Pressure 30.23 in    
Wind  
Wind Speed 0 mph ()    
Max Wind Speed 5 mph    
Max Gust Speed -    
Visibility 9.6 miles    
Events Rain    
Averages and records for this station are not official NWS values.
T = Trace of Precipitation, MM = Missing Value Source: Averaged Metar Reports

Daily Weather History Graph

Daily Weather History Graph

Search for Another Location

Airport or City:

Astronomy

Aug. 25, 2019 Rise Set
Actual Time 6:52 AM EDT 8:04 PM EDT
Civil Twilight 6:25 AM EDT 8:31 PM EDT
Nautical Twilight 5:54 AM EDT 9:02 PM EDT
Astronomical Twilight 5:20 AM EDT 9:35 PM EDT
Moon 1:31 AM EDT (8/25) 4:17 PM EDT (8/25)
Length of Visible Light 14h 05m
Length of Day
13h 11m
Waning Crescent, 29% of the Moon is Illuminated
Aug 25
Waning Crescent
Aug 30
New
Sep 5
First Quarter
Sep 14
Full
Sep 21
Last Quarter

Hourly Weather History & Observations

Time (EDT) Temp. Dew Point Humidity Pressure Visibility Wind Dir Wind Speed Gust Speed Precip Events Conditions
12:15 AM 55.4 °F 55.4 °F 100% 30.27 in 10.0 mi Calm Calm - N/A   Overcast
12:35 AM 55.0 °F 55.0 °F 100% 30.27 in 7.0 mi Calm Calm - N/A   Mostly Cloudy
12:55 AM 54.7 °F 54.7 °F 100% 30.27 in 10.0 mi Calm Calm - N/A   Mostly Cloudy
1:15 AM 54.9 °F 54.9 °F 100% 30.26 in 10.0 mi Calm Calm - N/A   Overcast
1:35 AM 55.2 °F 55.2 °F 100% 30.25 in 10.0 mi Calm Calm - N/A   Overcast
1:55 AM 54.9 °F 54.9 °F 100% 30.25 in 7.0 mi Calm Calm - N/A   Overcast
2:15 AM 55.4 °F 55.4 °F 100% 30.25 in 5.0 mi Calm Calm - N/A   Overcast
2:35 AM 55.4 °F 55.4 °F 100% 30.24 in 7.0 mi Calm Calm - N/A   Overcast
2:55 AM 55.4 °F 55.4 °F 100% 30.23 in 7.0 mi Calm Calm - N/A   Overcast
3:15 AM 55.4 °F 55.4 °F 100% 30.23 in 7.0 mi Calm Calm - N/A   Overcast
3:35 AM 55.6 °F 55.6 °F 100% 30.23 in 7.0 mi Calm Calm - N/A   Overcast
3:55 AM 55.6 °F 55.6 °F 100% 30.23 in 7.0 mi Calm Calm - N/A   Overcast
4:15 AM 55.6 °F 55.6 °F 100% 30.23 in 10.0 mi Calm Calm - N/A   Overcast
4:35 AM 55.8 °F 55.8 °F 100% 30.23 in 10.0 mi Calm Calm - N/A   Overcast
4:55 AM 55.6 °F 55.6 °F 100% 30.22 in 10.0 mi Calm Calm - N/A   Overcast
5:15 AM 55.6 °F 55.6 °F 100% 30.22 in 10.0 mi Calm Calm - N/A   Overcast
5:35 AM 55.9 °F 55.9 °F 100% 30.22 in 10.0 mi Calm Calm - N/A   Overcast
5:55 AM 55.8 °F 55.8 °F 100% 30.21 in 10.0 mi Calm Calm - N/A   Overcast
6:35 AM 55.8 °F 55.8 °F 100% 30.22 in 10.0 mi Calm Calm - N/A   Overcast
6:55 AM 55.9 °F 55.9 °F 100% 30.22 in 10.0 mi Calm Calm - N/A   Overcast
7:15 AM 55.8 °F 55.8 °F 100% 30.22 in 10.0 mi Calm Calm - N/A   Overcast
7:35 AM 56.3 °F 56.3 °F 100% 30.23 in 10.0 mi Calm Calm - N/A   Overcast
7:55 AM 56.3 °F 56.3 °F 100% 30.24 in 10.0 mi Calm Calm - N/A   Overcast
8:15 AM 56.7 °F 56.7 °F 100% 30.25 in 10.0 mi Calm Calm - N/A   Overcast
8:35 AM 57.2 °F 56.7 °F 98% 30.25 in 10.0 mi Calm Calm - N/A   Overcast
8:55 AM 57.6 °F 56.8 °F 97% 30.25 in 10.0 mi Calm Calm - N/A   Overcast
9:15 AM 58.3 °F 56.5 °F 94% 30.25 in 10.0 mi Calm Calm - N/A   Overcast
9:35 AM 58.3 °F 56.8 °F 95% 30.25 in 10.0 mi Calm Calm - N/A   Overcast
9:55 AM 59.0 °F 56.5 °F 91% 30.25 in 10.0 mi Calm Calm - N/A   Overcast
10:15 AM 59.7 °F 56.5 °F 89% 30.25 in 10.0 mi Calm Calm - N/A   Overcast
10:35 AM 60.8 °F 55.8 °F 83% 30.26 in 10.0 mi ESE 4.6 mph - N/A   Overcast
10:55 AM 61.0 °F 55.4 °F 82% 30.26 in 10.0 mi East 3.5 mph - N/A   Overcast
11:15 AM 60.4 °F 55.8 °F 85% 30.26 in 10.0 mi Calm Calm - N/A   Overcast
11:35 AM 59.2 °F 57.0 °F 93% 30.26 in 10.0 mi Calm Calm - N/A   Overcast
11:55 AM 59.4 °F 57.6 °F 94% 30.26 in 10.0 mi Calm Calm - N/A   Overcast
12:15 PM 59.9 °F 57.4 °F 91% 30.26 in 10.0 mi Calm Calm - N/A   Overcast
12:35 PM 59.5 °F 57.6 °F 93% 30.25 in 10.0 mi Calm Calm - N/A   Overcast
12:55 PM 59.4 °F 57.4 °F 93% 30.25 in 10.0 mi Calm Calm - N/A   Overcast
1:15 PM 61.2 °F 56.7 °F 85% 30.24 in 10.0 mi Calm Calm - N/A   Overcast
1:55 PM 61.0 °F 56.1 °F 84% 30.23 in 10.0 mi Calm Calm - N/A   Overcast
2:15 PM 59.9 °F 58.1 °F 94% 30.23 in 10.0 mi Calm Calm - N/A   Overcast
2:35 PM 59.9 °F 57.7 °F 93% 30.23 in 10.0 mi Calm Calm - N/A   Overcast
2:55 PM 60.4 °F 56.5 °F 87% 30.23 in 10.0 mi Calm Calm - N/A   Overcast
3:15 PM 62.1 °F 55.9 °F 80% 30.22 in 10.0 mi Calm Calm - N/A   Overcast
3:35 PM 63.3 °F 56.3 °F 78% 30.21 in 10.0 mi Calm Calm - N/A   Overcast
3:55 PM 63.1 °F 55.9 °F 77% 30.21 in 10.0 mi Calm Calm - N/A   Overcast
4:15 PM 63.9 °F 56.8 °F 78% 30.21 in 10.0 mi Calm Calm - N/A   Overcast
4:35 PM 64.0 °F 56.5 °F 76% 30.20 in 10.0 mi Calm Calm - N/A   Overcast
4:55 PM 62.6 °F 56.7 °F 81% 30.20 in 10.0 mi Calm Calm - N/A   Overcast
5:15 PM 62.1 °F 58.1 °F 87% 30.20 in 10.0 mi Calm Calm - N/A   Overcast
5:35 PM 61.0 °F 57.4 °F 88% 30.19 in 10.0 mi Calm Calm - N/A   Overcast
5:55 PM 60.8 °F 57.6 °F 89% 30.19 in 10.0 mi Calm Calm - N/A   Overcast
6:15 PM 61.0 °F 57.9 °F 90% 30.19 in 10.0 mi Calm Calm - N/A   Overcast
6:35 PM 61.2 °F 57.9 °F 89% 30.19 in 10.0 mi Calm Calm - N/A   Overcast
6:55 PM 61.9 °F 58.6 °F 89% 30.19 in 10.0 mi Calm Calm - N/A   Overcast
7:15 PM 62.1 °F 59.0 °F 90% 30.19 in 10.0 mi Calm Calm - N/A   Overcast
7:35 PM 61.3 °F 59.2 °F 93% 30.20 in 10.0 mi Calm Calm - N/A   Overcast
7:55 PM 60.8 °F 59.2 °F 94% 30.20 in 10.0 mi Calm Calm - N/A   Overcast
8:15 PM 60.8 °F 59.2 °F 94% 30.21 in 10.0 mi Calm Calm - N/A   Overcast
8:35 PM 60.3 °F 59.5 °F 97% 30.22 in 10.0 mi Calm Calm - N/A Rain Light Rain
8:55 PM 60.3 °F 59.4 °F 97% 30.22 in 10.0 mi Calm Calm - N/A   Overcast
9:15 PM 60.4 °F 58.6 °F 94% 30.22 in 10.0 mi Calm Calm - N/A   Overcast
9:35 PM 60.3 °F 59.0 °F 96% 30.23 in 10.0 mi Calm Calm - N/A   Overcast
9:55 PM 60.4 °F 58.8 °F 94% 30.23 in 10.0 mi Calm Calm - N/A   Overcast
10:15 PM 60.1 °F 58.1 °F 93% 30.24 in 10.0 mi Calm Calm - N/A   Overcast
10:35 PM 59.9 °F 57.7 °F 93% 30.23 in 10.0 mi ESE 3.5 mph - N/A   Overcast
10:55 PM 59.5 °F 57.4 °F 93% 30.23 in 10.0 mi Calm Calm - N/A   Mostly Cloudy
11:15 PM 59.2 °F 57.4 °F 94% 30.24 in 10.0 mi Calm Calm - N/A   Scattered Clouds
11:35 PM 59.2 °F 57.6 °F 94% 30.24 in 10.0 mi Calm Calm - N/A   Scattered Clouds
11:55 PM 59.0 °F 56.7 °F 92% 30.23 in 10.0 mi Calm Calm - N/A   Scattered Clouds